TimeCDT,TemperatureF,Dew PointF,Humidity,Sea Level PressureIn,VisibilityMPH,Wind Direction,Wind SpeedMPH,Gust SpeedMPH,PrecipitationIn,Events,Conditions,WindDirDegrees,DateUTC
12:55 AM,26.1,16.0,66,30.05,10.0,West,9.2,-,N/A,,Clear,280,2013-03-19 05:55:00
1:55 AM,27.0,15.1,61,30.06,10.0,West,12.7,-,N/A,,Clear,280,2013-03-19 06:55:00
2:55 AM,27.0,15.1,61,30.05,10.0,WNW,11.5,-,N/A,,Clear,290,2013-03-19 07:55:00
3:55 AM,27.0,15.1,61,30.08,10.0,WNW,12.7,-,N/A,,Clear,290,2013-03-19 08:55:00
4:55 AM,27.0,16.0,63,30.09,10.0,WNW,13.8,19.6,N/A,,Clear,300,2013-03-19 09:55:00
5:55 AM,25.0,14.0,63,30.11,10.0,NW,9.2,-,N/A,,Clear,310,2013-03-19 10:55:00
6:55 AM,24.1,12.0,60,30.13,10.0,NW,10.4,-,N/A,,Clear,310,2013-03-19 11:55:00
7:55 AM,24.1,10.9,57,30.16,10.0,NW,10.4,-,N/A,,Clear,310,2013-03-19 12:55:00
8:55 AM,25.0,10.0,53,30.19,10.0,WNW,12.7,-,N/A,,Clear,300,2013-03-19 13:55:00
9:55 AM,28.9,9.0,43,30.22,10.0,NW,11.5,-,N/A,,Clear,320,2013-03-19 14:55:00
10:55 AM,33.1,9.0,37,30.24,10.0,NW,9.2,-,N/A,,Clear,310,2013-03-19 15:55:00
11:55 AM,35.1,9.0,34,30.24,10.0,NW,9.2,-,N/A,,Clear,320,2013-03-19 16:55:00
12:55 PM,37.9,9.0,30,30.24,10.0,West,4.6,-,N/A,,Clear,270,2013-03-19 17:55:00
1:55 PM,39.9,7.0,26,30.22,10.0,WNW,6.9,-,N/A,,Clear,290,2013-03-19 18:55:00
2:55 PM,42.1,8.1,25,30.22,10.0,Variable,6.9,-,N/A,,Mostly Cloudy,0,2013-03-19 19:55:00
3:55 PM,43.0,8.1,24,30.21,10.0,WNW,8.1,-,N/A,,Clear,290,2013-03-19 20:55:00
4:55 PM,43.0,10.0,26,30.21,10.0,West,9.2,-,N/A,,Clear,260,2013-03-19 21:55:00
5:55 PM,42.1,10.9,28,30.21,10.0,SW,9.2,-,N/A,,Clear,230,2013-03-19 22:55:00
6:55 PM,39.9,14.0,35,30.22,10.0,WSW,8.1,-,N/A,,Clear,240,2013-03-19 23:55:00
7:55 PM,35.1,14.0,42,30.22,10.0,SW,5.8,-,N/A,,Clear,220,2013-03-20 00:55:00
8:55 PM,34.0,15.1,46,30.22,10.0,SW,3.5,-,N/A,,Clear,230,2013-03-20 01:55:00
9:55 PM,30.9,15.1,52,30.21,10.0,SW,4.6,-,N/A,,Clear,220,2013-03-20 02:55:00
10:55 PM,33.1,18.0,54,30.22,10.0,WSW,8.1,-,N/A,,Clear,250,2013-03-20 03:55:00
11:55 PM,33.1,25.0,72,30.24,10.0,NW,9.2,-,N/A,,Scattered Clouds,320,2013-03-20 04:55:00